Time,TemperatureF,DewpointF,PressureIn,WindDirection,WindDirectionDegrees,WindSpeedMPH,WindSpeedGustMPH,Humidity,HourlyPrecipIn,Conditions,Clouds,dailyrainin,SolarRadiationWatts/m^2,SoftwareType,DateUTC
2013-09-10 00:00:00,68.0,61.0,-100.00,NNE,23,6.0,11.0,80,-99.99,,,0.00,0.120000,,2013-09-10 07:00:00,
2013-09-10 00:52:00,68.0,61.0,-100.00,NNE,23,6.0,11.0,80,-99.99,,,0.00,0.120000,,2013-09-10 07:52:00,
2013-09-10 01:00:00,70.0,62.0,-100.00,North,0,10.0,16.0,74,-99.99,,,0.00,0.120000,,2013-09-10 08:00:00,
2013-09-10 01:42:00,70.0,62.0,-100.00,North,0,10.0,16.0,74,-99.99,,,0.00,0.120000,,2013-09-10 08:42:00,
2013-09-10 01:52:00,70.0,62.0,-100.00,North,0,10.0,16.0,74,-99.99,,,0.00,0.120000,,2013-09-10 08:52:00,
2013-09-10 02:00:00,69.0,61.0,-100.00,North,0,9.0,15.0,75,-99.99,,,0.00,0.120000,,2013-09-10 09:00:00,
2013-09-10 02:43:00,69.0,61.0,-100.00,North,0,9.0,15.0,75,-99.99,,,0.00,0.120000,,2013-09-10 09:43:00,
2013-09-10 02:54:00,69.0,61.0,-100.00,North,0,9.0,15.0,75,-99.99,,,0.00,0.120000,,2013-09-10 09:54:00,
2013-09-10 03:00:00,66.0,60.0,-100.00,NNE,20,7.0,11.0,82,-99.99,,,0.00,0.120000,,2013-09-10 10:00:00,
2013-09-10 03:42:00,66.0,60.0,-100.00,NNE,20,7.0,11.0,82,-99.99,,,0.00,0.120000,,2013-09-10 10:42:00,
2013-09-10 03:53:00,66.0,60.0,-100.00,NNE,20,7.0,11.0,82,-99.99,,,0.00,0.120000,,2013-09-10 10:53:00,
2013-09-10 04:00:00,64.0,60.0,-100.00,NNE,28,5.0,8.0,84,-99.99,,,0.00,0.120000,,2013-09-10 11:00:00,
2013-09-10 04:42:00,64.0,60.0,-100.00,NNE,28,5.0,8.0,84,-99.99,,,0.00,0.120000,,2013-09-10 11:42:00,
2013-09-10 04:52:00,64.0,60.0,-100.00,NNE,28,5.0,8.0,84,-99.99,,,0.00,0.120000,,2013-09-10 11:52:00,
2013-09-10 05:00:00,63.0,60.0,-100.00,NNE,20,5.0,9.0,88,-99.99,,,0.00,0.120000,,2013-09-10 12:00:00,
2013-09-10 05:42:00,63.0,60.0,-100.00,NNE,20,5.0,9.0,88,-99.99,,,0.00,0.120000,,2013-09-10 12:42:00,
2013-09-10 05:52:00,63.0,60.0,-100.00,NNE,20,5.0,9.0,88,-99.99,,,0.00,0.120000,,2013-09-10 12:52:00,
2013-09-10 06:00:00,62.0,58.0,-100.00,NE,41,3.0,5.0,88,-99.99,,,0.00,0.120000,,2013-09-10 13:00:00,
2013-09-10 06:42:00,62.0,58.0,-100.00,NE,41,3.0,5.0,88,-99.99,,,0.00,0.120000,,2013-09-10 13:42:00,
2013-09-10 06:52:00,62.0,58.0,-100.00,NE,41,3.0,5.0,88,-99.99,,,0.00,0.120000,,2013-09-10 13:52:00,
2013-09-10 07:00:00,61.0,59.0,-100.00,NNE,15,4.0,6.0,91,-99.99,,,0.00,6.970000,,2013-09-10 14:00:00,
2013-09-10 07:42:00,61.0,59.0,-100.00,NNE,15,4.0,6.0,91,-99.99,,,0.00,6.970000,,2013-09-10 14:42:00,
2013-09-10 07:52:00,61.0,59.0,-100.00,NNE,15,4.0,6.0,91,-99.99,,,0.00,6.970000,,2013-09-10 14:52:00,
2013-09-10 08:00:00,65.0,61.0,-100.00,NNE,13,6.0,9.0,85,-99.99,,,0.00,147.830002,,2013-09-10 15:00:00,
2013-09-10 08:43:00,65.0,61.0,-100.00,NNE,13,6.0,9.0,85,-99.99,,,0.00,147.830002,,2013-09-10 15:43:00,
2013-09-10 08:54:00,65.0,61.0,-100.00,NNE,13,6.0,9.0,85,-99.99,,,0.00,147.830002,,2013-09-10 15:54:00,
2013-09-10 09:00:00,67.0,62.0,-100.00,NNE,22,7.0,11.0,81,-99.99,,,0.00,323.209991,,2013-09-10 16:00:00,
2013-09-10 09:43:00,67.0,62.0,-100.00,NNE,22,7.0,11.0,81,-99.99,,,0.00,323.209991,,2013-09-10 16:43:00,
2013-09-10 09:53:00,67.0,62.0,-100.00,NNE,22,7.0,11.0,81,-99.99,,,0.00,323.209991,,2013-09-10 16:53:00,
2013-09-10 10:00:00,70.0,62.0,-100.00,North,8,8.0,13.0,75,-99.99,,,0.00,494.750000,,2013-09-10 17:00:00,
2013-09-10 10:43:00,70.0,62.0,-100.00,North,8,8.0,13.0,75,-99.99,,,0.00,494.750000,,2013-09-10 17:43:00,
2013-09-10 10:52:00,70.0,62.0,-100.00,North,8,8.0,13.0,75,-99.99,,,0.00,494.750000,,2013-09-10 17:52:00,
2013-09-10 11:00:00,73.0,62.0,-100.00,NNE,31,8.0,12.0,68,-99.99,,,0.00,633.630005,,2013-09-10 18:00:00,
2013-09-10 11:43:00,73.0,62.0,-100.00,NNE,31,8.0,12.0,68,-99.99,,,0.00,633.630005,,2013-09-10 18:43:00,
2013-09-10 11:52:00,73.0,62.0,-100.00,NNE,31,8.0,12.0,68,-99.99,,,0.00,633.630005,,2013-09-10 18:52:00,
2013-09-10 12:00:00,76.0,63.0,-100.00,NNE,20,8.0,14.0,63,-99.99,,,0.00,734.049988,,2013-09-10 19:00:00,
2013-09-10 12:42:00,76.0,63.0,-100.00,NNE,20,8.0,14.0,63,-99.99,,,0.00,734.049988,,2013-09-10 19:42:00,
2013-09-10 12:52:00,76.0,63.0,-100.00,NNE,20,8.0,14.0,63,-99.99,,,0.00,734.049988,,2013-09-10 19:52:00,
2013-09-10 13:00:00,79.0,63.0,-100.00,NNE,16,10.0,16.0,57,-99.99,,,0.00,781.580017,,2013-09-10 20:00:00,
2013-09-10 13:42:00,79.0,63.0,-100.00,NNE,16,10.0,16.0,57,-99.99,,,0.00,781.580017,,2013-09-10 20:42:00,
2013-09-10 13:52:00,79.0,63.0,-100.00,NNE,16,10.0,16.0,57,-99.99,,,0.00,781.580017,,2013-09-10 20:52:00,
2013-09-10 16:00:00,88.0,63.0,-100.00,NNE,14,12.0,18.0,43,-99.99,,,0.00,587.489990,,2013-09-10 23:00:00,
2013-09-10 16:42:00,88.0,63.0,-100.00,NNE,14,12.0,18.0,43,-99.99,,,0.00,587.489990,,2013-09-10 23:42:00,
2013-09-10 16:53:00,88.0,63.0,-100.00,NNE,14,12.0,18.0,43,-99.99,,,0.00,587.489990,,2013-09-10 23:53:00,
2013-09-10 17:00:00,89.0,62.0,-100.00,NNE,13,11.0,17.0,40,-99.99,,,0.00,432.450012,,2013-09-11 00:00:00,
2013-09-10 17:42:00,89.0,62.0,-100.00,NNE,13,11.0,17.0,40,-99.99,,,0.00,432.450012,,2013-09-11 00:42:00,
2013-09-10 17:52:00,89.0,62.0,-100.00,NNE,13,11.0,17.0,40,-99.99,,,0.00,432.450012,,2013-09-11 00:52:00,
2013-09-10 18:00:00,88.0,61.0,-100.00,NNE,14,11.0,16.0,40,-99.99,,,0.00,254.990005,,2013-09-11 01:00:00,
2013-09-10 18:42:00,88.0,61.0,-100.00,NNE,14,11.0,16.0,40,-99.99,,,0.00,254.990005,,2013-09-11 01:42:00,
2013-09-10 18:53:00,88.0,61.0,-100.00,NNE,14,11.0,16.0,40,-99.99,,,0.00,254.990005,,2013-09-11 01:53:00,
2013-09-10 19:00:00,85.0,62.0,-100.00,North,4,7.0,11.0,46,-99.99,,,0.00,80.540001,,2013-09-11 02:00:00,
2013-09-10 19:52:00,85.0,62.0,-100.00,North,4,7.0,11.0,46,-99.99,,,0.00,80.540001,,2013-09-11 02:52:00,
2013-09-10 20:00:00,79.0,60.0,-100.00,NE,34,4.0,7.0,51,-99.99,,,0.00,0.460000,,2013-09-11 03:00:00,
2013-09-10 20:44:00,79.0,60.0,-100.00,NE,34,4.0,7.0,51,-99.99,,,0.00,0.460000,,2013-09-11 03:44:00,
2013-09-10 20:54:00,79.0,60.0,-100.00,NE,34,4.0,7.0,51,-99.99,,,0.00,0.460000,,2013-09-11 03:54:00,
2013-09-10 21:00:00,80.0,61.0,-100.00,NNE,31,3.0,7.0,52,-99.99,,,0.00,0.000000,,2013-09-11 04:00:00,
2013-09-10 21:43:00,80.0,61.0,-100.00,NNE,31,3.0,7.0,52,-99.99,,,0.00,0.000000,,2013-09-11 04:43:00,
2013-09-10 21:54:00,80.0,61.0,-100.00,NNE,31,3.0,7.0,52,-99.99,,,0.00,0.000000,,2013-09-11 04:54:00,
2013-09-10 22:42:00,80.0,61.0,-100.00,NNE,28,4.0,12.0,51,-99.99,,,0.00,0.000000,,2013-09-11 05:42:00,